Back to catalog

STARLINK-37508

AliveCommunicationsVLEO
NORAD 69257·PAYLOAD·🇺🇸 United States

Launched May 29, 2026 from Cape Canaveral Space Force Station

Loading…

Next Passes (next 24 hours)

TLE

FreshSource: CelesTrak SupGP

Epoch: Sep 14, 2026, 15:42 UTC

1 69257C 26117V   26257.65465278  .00068616  00000+0  20278-2 0  2575
2 69257  53.1580 180.7136 0001490  85.6388 301.8218 15.34348082    13

Track STARLINK-37508 in real time with AllMySat

Download on the App Store